Terminal Aerodrome Forecast
Issued by NWS Spokane, WA

Home | Current Version | Previous Version | Text Only | Print | Product List | Glossary On
Versions: 1 2 3 4 5 6 7 8 9 10 11 12 13 14 15 16 17 18 19 20 21 22 23 24 25 26 27 28 29 30 31 32 33 34 35 36 37 38 39 40
000
FTUS46 KOTX 061133
TAFGEG
TAF
KGEG 061133Z 0612/0712 03008KT P6SM VCSH BKN050 OVC070
     FM061500 02008KT P6SM BKN060 OVC100
     FM062100 03008KT P6SM SCT120 BKN200
     FM070300 04005KT P6SM BKN250=

USA.gov is the U.S. government's official web portal to all federal, state and local government web resources and services.